TimeCST,TemperatureF,Dew PointF,Humidity,Sea Level PressureIn,VisibilityMPH,Wind Direction,Wind SpeedMPH,Gust SpeedMPH,PrecipitationIn,Events,Conditions,WindDirDegrees,DateUTC
12:53 AM,50.0,42.1,74,30.03,-9999.0,North,10.4,19.6,N/A,,Unknown,350,2012-12-29 06:53:00
1:53 AM,46.9,39.9,77,30.05,-9999.0,NW,11.5,19.6,N/A,,Unknown,320,2012-12-29 07:53:00
2:53 AM,46.9,39.9,77,30.08,-9999.0,NNW,9.2,17.3,N/A,,Unknown,330,2012-12-29 08:53:00
3:53 AM,46.0,37.9,73,30.11,-9999.0,North,8.1,21.9,N/A,,Unknown,350,2012-12-29 09:53:00
4:53 AM,46.9,39.0,74,30.14,-9999.0,NNW,4.6,-,N/A,,Unknown,340,2012-12-29 10:53:00
5:53 AM,46.0,36.0,68,30.17,-9999.0,North,11.5,20.7,N/A,,Unknown,360,2012-12-29 11:53:00
6:53 AM,46.0,37.0,71,30.20,-9999.0,NNW,9.2,-,N/A,,Unknown,340,2012-12-29 12:53:00
7:53 AM,45.0,34.0,65,30.23,-9999.0,NW,10.4,23.0,N/A,,Unknown,320,2012-12-29 13:53:00
8:53 AM,46.0,35.1,66,30.29,-9999.0,NNW,9.2,19.6,N/A,,Unknown,330,2012-12-29 14:53:00
9:53 AM,46.0,36.0,68,30.29,-9999.0,NW,10.4,-,N/A,,Unknown,310,2012-12-29 15:53:00
10:53 AM,46.9,34.0,61,30.30,-9999.0,NNW,8.1,-,N/A,,Unknown,330,2012-12-29 16:53:00
11:53 AM,46.9,27.0,46,30.30,-9999.0,NNW,8.1,17.3,N/A,,Unknown,330,2012-12-29 17:53:00
12:53 PM,48.0,30.9,52,30.28,-9999.0,NNW,6.9,16.1,N/A,,Unknown,330,2012-12-29 18:53:00
1:53 PM,46.9,32.0,56,30.28,-9999.0,NW,12.7,18.4,N/A,,Unknown,310,2012-12-29 19:53:00
2:53 PM,48.9,32.0,52,30.28,-9999.0,Variable,6.9,-,N/A,,Unknown,0,2012-12-29 20:53:00
3:53 PM,48.9,28.9,46,30.29,-9999.0,Variable,4.6,16.1,N/A,,Unknown,0,2012-12-29 21:53:00
4:53 PM,48.0,30.0,50,30.32,-9999.0,NW,8.1,-,N/A,,Unknown,320,2012-12-29 22:53:00
5:53 PM,48.0,30.0,50,30.32,-9999.0,NW,5.8,-,N/A,,Unknown,310,2012-12-29 23:53:00
6:53 PM,48.0,30.9,52,30.36,-9999.0,Variable,3.5,-,N/A,,Unknown,0,2012-12-30 00:53:00
7:53 PM,46.9,30.9,54,30.38,-9999.0,North,4.6,-,N/A,,Unknown,350,2012-12-30 01:53:00
8:53 PM,45.0,28.9,53,30.39,-9999.0,Variable,5.8,-,N/A,,Unknown,0,2012-12-30 02:53:00
9:53 PM,44.1,28.9,55,30.39,-9999.0,North,5.8,-,N/A,,Unknown,360,2012-12-30 03:53:00
10:53 PM,42.1,30.0,62,30.41,-9999.0,North,5.8,-,N/A,,Unknown,360,2012-12-30 04:53:00
11:53 PM,39.9,30.9,70,30.41,-9999.0,Calm,Calm,-,N/A,,Unknown,0,2012-12-30 05:53:00